This demonstration page uses our WeatherBlox Daily Observations layout. Learn more.

Left ArrowRight Arrow

38.80484, -77.04692

Hourly Observations for June 13, 2021

Temp ( °F °C ) Dew Point ( °F °C ) Humidity (%) Winds ( mph kmh ) Pressure ( in mb ) Visibility ( mi km ) Precip ( " mm )
12:52 am 00:52 Mostly Cloudy 71 21.7 63 17.2 76 76 SSE 8 13 29.91 1013 10 16 N/A
1:52 am 01:52 Mostly Cloudy 69 20.6 63 17.2 81 81 SE 7 11 29.90 1013 10 16 N/A
2:52 am 02:52 Mostly Cloudy 68 20 62 16.7 81 81 SSE 6 9 29.91 1013 10 16 N/A
3:52 am 03:52 Mostly Cloudy 68 20 61 16.1 78 78 SSE 8 13 29.90 1012 10 16 N/A
4:52 am 04:52 Mostly Cloudy 68 20 61 16.1 78 78 SSE 6 9 29.90 1013 10 16 N/A
5:52 am 05:52 Mostly Cloudy 68 20 62 16.7 81 81 S 7 11 29.91 1013 10 16 N/A
6:52 am 06:52 Mostly Cloudy 69 20.6 63 17.2 81 81 S 3 6 29.92 1013 10 16 N/A
7:52 am 07:52 Cloudy 70 21.1 63 17.2 79 79 N N/A 29.93 1014 10 16 N/A
8:52 am 08:52 Mostly Cloudy 72 22.2 64 17.8 76 76 S 5 7 29.94 1014 10 16 N/A
9:52 am 09:52 Mostly Cloudy 74 23.3 62 16.7 67 67 SSE 7 11 29.93 1014 10 16 N/A
10:52 am 10:52 Mostly Cloudy 76 24.4 64 17.8 67 67 S 10 17 29.93 1014 10 16 N/A
11:52 am 11:52 Partly Cloudy 78 25.6 65 18.3 64 64 SSE 13 20 29.93 1013 10 16 N/A
12:52 pm 12:52 Mostly Cloudy 79 26.1 65 18.3 62 62 S 12 19 29.92 1013 10 16 N/A
1:52 pm 13:52 Mostly Cloudy 82 27.8 65 18.3 56 56 SSW 8 13 29.92 1013 10 16 N/A
2:52 pm 14:52 Cloudy 79 26.1 65 18.3 62 62 S 10 17 29.88 1012 10 16 N/A
3:52 pm 15:52 Cloudy 79 26.1 66 18.9 65 65 SSW 8 13 29.88 1012 10 16 0.00 0.00
4:52 pm 16:52 Mostly Cloudy 81 27.2 68 20 65 65 S 12 19 29.85 1011 10 16 0.00 0.00
5:52 pm 17:52 Mostly Cloudy 79 26.1 67 19.4 67 67 S 10 17 29.85 1011 10 16 N/A
6:52 pm 18:52 Mostly Cloudy 79 26.1 67 19.4 67 67 S 12 19 29.83 1010 10 16 N/A
7:52 pm 19:52 Mostly Cloudy 78 25.6 67 19.4 69 69 S 9 15 29.84 1010 10 16 N/A
8:52 pm 20:52 Mostly Cloudy 76 24.4 66 18.9 72 72 SSE 12 19 29.86 1011 10 16 N/A
9:52 pm 21:52 Mostly Cloudy 74 23.3 65 18.3 74 74 SSE 10 17 29.87 1012 10 16 N/A
10:52 pm 22:52 Cloudy 73 22.8 64 17.8 74 74 SSE 10 17 29.88 1012 10 16 N/A
11:52 pm 23:52 Cloudy 73 22.8 64 17.8 74 74 SSE 8 13 29.88 1012 10 16 N/A

Powered by AerisWeather